EW5612 Weather Reports


Display with metric or nautical units.
time (UTC)temp
F
wind
direction
speed
MPH
gust
MPH
rain 1hr
in
rain 24hr
in
rain mn
in
humidity
%
barometer
mb
20260902170704 94 146 0.0 0.0 0.00 0.00 0.00 52 1013.7
20260902165703 93 242 0.0 0.0 0.00 0.00 0.00 56 1013.9
20260902165204 93 189 0.0 0.0 0.00 0.00 0.00 56 1013.9
20260902164703 93 185 0.0 0.0 0.00 0.00 0.00 58 1013.9
20260902164204 92 189 0.0 0.0 0.00 0.00 0.00 60 1014.0
20260902163703 92 163 0.0 0.0 0.00 0.00 0.00 61 1014.0
20260902163203 91 145 0.0 0.0 0.00 0.00 0.00 61 1014.0
20260902162703 91 175 0.0 0.0 0.00 0.00 0.00 62 1014.1
20260902162203 91 179 0.0 0.0 0.00 0.00 0.00 62 1014.1
20260902161704 90 197 0.0 0.0 0.00 0.00 0.00 64 1014.2
20260902160704 89 180 0.0 1.0 0.00 0.00 0.00 64 1014.2
20260902160203 89 222 0.0 0.0 0.00 0.00 0.00 67 1014.2
20260902155704 89 223 0.0 0.0 0.00 0.00 0.00 68 1014.2
20260902155203 88 183 0.0 0.0 0.00 0.00 0.00 67 1014.2
20260902154704 88 230 0.0 0.0 0.00 0.00 0.00 70 1014.2
20260902154204 87 170 0.0 0.0 0.00 0.00 0.00 72 1014.1
20260902153704 87 186 0.0 0.0 0.00 0.00 0.00 72 1014.1
20260902152704 86 207 0.0 0.0 0.00 0.00 0.00 73 1014.2
20260902152204 86 174 0.0 0.0 0.00 0.00 0.00 74 1014.2
20260902151704 85 294 0.0 0.0 0.00 0.00 0.00 75 1014.2
20260902150703 85 185 0.0 0.0 0.00 0.00 0.00 77 1014.2
20260902150203 85 191 0.0 0.0 0.00 0.00 0.00 78 1014.2
20260902145703 84 172 0.0 0.0 0.00 0.00 0.00 79 1014.2
20260902145204 84 161 0.0 0.0 0.00 0.00 0.00 79 1014.2
20260902144703 83 186 0.0 0.0 0.00 0.00 0.00 80 1014.2
20260902144204 83 167 0.0 0.0 0.00 0.00 0.00 81 1014.2
20260902143704 83 171 0.0 0.0 0.00 0.00 0.00 83 1014.2
20260902143204 82 205 0.0 0.0 0.00 0.00 0.00 84 1014.3
20260902142705 82 170 0.0 0.0 0.00 0.00 0.00 84 1014.3
20260902142203 81 158 0.0 0.0 0.00 0.00 0.00 85 1014.4
20260902141704 81 203 0.0 0.0 0.00 0.00 0.00 86 1014.4
20260902141203 80 187 0.0 0.0 0.00 0.00 0.00 86 1014.4
20260902140704 80 188 0.0 0.0 0.00 0.00 0.00 87 1014.3